Weather in Shakhta

Russia / Novosibirsk Oblast     55°05′35″N   84°45′23″E
temp.,
°C
wind,
m/s
gust,
m/s
humid.,
%
clouds,
%
prec.,
mm/h
press.,
hPa
HPBL,
m
27 january, wed
wed2701:00−25se349761 0.0 103585
04:00−16s51195100 0.4 1030480
07:00−12ssw61294100 1.4 1027635
10:00−9sw81692100 1.4 1022601
13:00−3wsw91693100 2.4 1020921
16:00−3wsw91694100 1.1 1020888
19:00−3wsw91593100 1.9 1021757
22:00−3wsw91594100 0.6 1023684
28 january, thu
thu2801:00−3w71295100 1.4 1025605
04:00−9nnw3597100 0.8 1027158
07:00−12n2296100 1.1 103064
10:00−13ene1296100 0.8 103062
13:00−10ese2296100 1.5 1030119
16:00−4wsw71193100 0.8 1027711
19:00−6sw61389100 0.9 1027654
22:00−6wsw71489100 0.1 1025685
29 january, fri
fri2901:00−7sw71588100 0.1 1023540
04:00−6sw91888100 0.0 1021584
07:00−6wsw102086100 0.0 1019691
10:00−5wsw111988100 0.1 1018883
13:00−4w91493100 1.6 10201007
16:00−4w71290100 0.3 1021741
19:00−4w61193100 0.4 1024719
22:00−5w61292100 0.2 1024491
30 january, sat
sat3001:00−6w6139298 0.3 1025480
04:00−7w61293100 0.2 1027450
07:00−8w51094100 0.5 1029421
10:00−17n3698100 0.3 1032216
13:00−19n3395100 0.5 1034238
16:00−22n239525 0.0 1035132
19:00−28nne239312 0.0 103819
22:00−30ene229316 0.0 104019
31 january, sun
sun3101:00−30e339414 0.0 104127
04:00−30e339092 0.0 104037
07:00−29e359081 0.0 104081
10:00−28e469188 0.0 1039105
13:00−23e469284 0.0 1037175
16:00−21e469039 0.0 1034188
19:00−21e369169 0.0 1033112
22:00−20e3586100 0.0 1030100